Location: Landeleau
(48.2273°N, 3.7285°W)
Time: 07:56:54
(UTC+00:00)

STARLINK-1123 - Pass Details

Date: 30 March 2020
Orbit: 549 x 550 km, 53.0° (Epoch: 25 May)

Event Time Altitude Azimuth Distance (km) Brightness Sun altitude
Rises 18:22:16 0° 284° (WNW) 2,720 9.5 2.6°
Reaches altitude 10° 18:24:36 10° 291° (WNW) 1,826 8.0 2.2°
Drops below altitude 10° 18:32:31 10° 76° (ENE) 1,825 5.7 0.9°
Enters shadow 18:35:04 -1° 84° (E) 2,805 6.6 0.5°
Exits shadow 19:10:41 -75° 108° (ESE) 12,886 10.4 -5.4°
Maximum altitude 20:08:29 78° 24° (NNE) 566 3.6 -14.5°
